Theta_e
301 300 300 299 298 298 297 296 296 295 295 294 294 295 295 295 296 298 299 300 299 300 301 301 301 302 304 308 311 314 323 330 327 325 329 328 328 329 331 331 330 329 328
302 301 300 299 299 298 297 297 296 295 294 294 294 294 294 295 296 297 298 299 300 299 300 301 301 302 303 307 309 311 318 329 326 323 325 329 329 329 329 331 330 329 328
301 301 299 299 298 297 297 296 296 295 294 294 294 294 294 295 295 296 298 299 300 299 299 300 301 301 302 304 306 308 311 325 330 327 325 327 330 329 331 332 330 329 328
301 300 299 298 297 297 296 296 295 295 294 294 294 294 294 294 295 296 297 299 299 300 299 300 301 301 301 302 304 308 308 313 325 328 326 326 327 330 332 331 331 331 329
301 300 298 297 297 296 296 295 295 294 294 294 294 294 294 294 294 295 297 299 299 300 299 300 301 299 300 301 303 308 307 310 316 326 328 327 326 327 329 330 330 331 330
301 299 298 297 296 296 295 295 295 294 294 293 294 294 294 294 294 295 296 297 298 299 298 300 300 300 298 300 301 306 307 308 313 322 329 327 326 327 327 329 328 330 330
300 299 298 297 296 296 295 295 294 294 293 293 293 293 294 294 294 295 295 295 296 297 298 299 300 300 299 299 302 305 305 306 311 317 327 328 327 328 327 326 329 331 329
300 299 297 297 296 295 295 295 294 293 293 294 293 293 293 293 294 295 295 295 296 297 298 299 299 299 300 299 301 305 304 306 309 314 323 327 326 326 326 326 328 329 330
300 299 297 297 296 295 295 295 294 293 293 293 293 293 293 293 294 295 296 296 297 297 298 298 298 298 299 298 300 302 303 306 308 312 321 327 326 326 327 325 326 329 331
300 299 298 297 296 295 295 295 294 294 294 293 293 293 293 294 294 296 296 295 296 297 296 297 297 298 298 298 300 301 303 305 308 311 316 325 326 327 327 326 326 327 328
300 299 298 297 296 295 295 295 294 294 294 293 293 293 294 294 295 296 296 296 297 297 296 297 297 297 297 298 299 301 302 303 305 309 309 315 323 325 326 325 325 327 327
299 298 298 297 295 295 295 294 294 294 293 293 293 293 294 295 295 295 296 296 295 295 296 296 296 296 296 297 298 299 300 300 303 304 305 306 317 322 324 323 327 327 327
299 298 298 297 296 295 295 294 294 293 293 293 293 293 294 295 295 295 296 295 294 295 295 295 296 296 295 296 298 298 299 299 300 300 302 301 310 314 318 318 321 325 327
299 299 298 297 297 296 294 294 293 293 292 293 293 293 293 295 295 295 296 295 294 294 295 295 295 296 294 293 294 297 298 298 298 297 299 299 301 309 310 315 312 319 323
299 298 298 297 297 296 295 294 293 292 292 292 293 293 293 293 295 294 294 294 294 294 294 295 295 295 292 291 293 295 297 297 297 296 297 298 302 302 304 309 311 318 315
299 298 297 297 296 296 295 294 293 292 292 292 292 292 293 294 294 294 294 294 294 294 294 294 295 294 291 290 293 295 296 296 295 295 296 295 299 302 303 302 303 316 315
299 299 298 297 296 296 295 294 293 292 292 292 292 291 292 294 293 293 294 294 294 293 294 294 294 294 289 289 292 293 295 294 293 293 294 294 292 299 301 301 301 305 309
300 299 298 297 296 295 295 294 293 292 292 292 292 291 292 293 293 293 293 294 293 292 293 293 293 294 290 288 292 293 294 294 293 289 289 290 290 293 298 300 299 300 304
300 299 298 297 296 295 294 294 293 293 292 292 292 291 291 293 293 294 293 293 292 292 291 291 292 291 292 286 290 293 295 295 293 291 289 287 288 292 295 297 296 296 295
299 299 298 296 295 295 294 294 294 293 293 292 292 291 291 292 293 293 293 293 292 291 290 290 291 289 291 287 286 290 294 294 294 293 290 286 286 290 293 294 295 293 293
299 298 298 296 296 295 294 294 294 294 293 292 291 291 291 292 293 293 292 292 292 291 291 290 290 290 288 288 284 287 291 292 292 292 290 285 283 284 286 288 290 291 292
300 298 298 296 295 295 294 294 294 294 293 292 291 291 291 292 292 292 292 292 291 291 291 291 290 290 289 285 283 283 285 288 290 290 289 285 283 284 284 286 288 291 293
301 300 298 297 296 295 294 294 294 293 293 292 291 291 291 291 292 293 292 292 292 291 291 290 290 290 288 288 286 283 282 284 287 284 282 282 284 285 286 284 286 289 291
302 301 299 297 297 295 294 294 293 293 292 292 291 291 291 291 292 293 292 292 292 292 291 290 290 289 288 288 288 287 286 286 286 285 285 284 284 285 286 286 286 286 286
303 301 300 299 297 296 295 294 293 293 292 292 291 291 291 291 290 292 293 292 292 292 292 291 290 289 289 288 286 283 285 286 284 284 287 287 287 287 287 286 285 285 286
304 302 300 299 298 297 296 294 293 292 292 292 291 291 291 291 291 291 293 292 291 289 289 288 287 288 286 285 284 280 279 280 280 284 287 287 286 287 286 286 286 285 284
Wind_Speed
20 20 17 14 16 17 15 16 15 16 20 23 23 21 19 20 17 15 15 15 15 16 18 17 20 20 19 16 13 11 18 24 26 19 9 15 21 19 16 16 17 19 15
16 18 18 17 15 17 15 12 12 13 19 19 19 19 17 19 17 13 15 13 14 14 16 16 18 19 18 16 13 13 12 23 35 21 7 2 10 16 21 18 19 20 17
17 17 21 15 16 18 13 10 10 13 15 16 16 19 18 16 16 16 15 15 14 12 14 15 16 18 18 16 16 14 16 7 27 34 15 2 5 12 13 13 19 21 18
14 17 17 16 17 15 12 8 11 12 13 14 15 15 18 17 18 17 15 16 13 9 11 16 16 17 19 17 16 15 15 9 2 31 33 21 7 7 6 14 17 17 19
14 13 16 16 16 16 14 6 10 11 13 11 13 15 17 18 18 16 15 14 12 9 14 16 16 18 18 19 19 17 16 11 12 7 26 18 17 16 4 7 14 18 20
13 14 14 14 12 11 13 9 10 12 12 12 12 14 16 17 17 16 15 22 21 15 14 16 16 16 19 20 19 18 17 15 12 11 21 23 17 18 15 4 15 18 21
11 11 14 12 12 12 12 12 9 12 11 11 11 13 15 15 15 15 12 19 20 14 17 15 15 16 19 20 21 18 18 17 13 12 12 26 25 19 25 19 12 14 22
10 11 11 11 11 11 10 10 11 10 11 10 11 13 12 13 13 14 12 13 13 15 13 12 14 14 16 19 20 18 18 18 13 11 5 25 23 26 24 22 13 6 15
9 9 10 8 9 9 8 9 10 11 10 11 12 13 11 10 11 12 10 11 11 11 13 13 13 13 13 15 17 18 16 18 16 10 7 21 24 24 27 26 24 9 4
9 8 8 6 6 6 8 7 8 9 10 10 12 11 11 10 10 11 10 11 11 11 15 14 12 13 15 15 17 17 18 16 14 14 9 7 12 16 27 23 23 26 17
8 6 6 5 4 4 4 5 7 9 10 11 9 8 8 9 10 9 8 8 10 11 13 13 12 14 15 15 15 17 14 14 13 15 11 6 8 8 11 21 24 22 18
7 6 6 5 5 3 4 4 5 7 9 8 7 7 10 9 7 10 9 9 12 13 12 12 12 13 15 16 18 18 17 18 18 19 14 14 7 4 4 5 19 21 21
6 6 5 5 4 4 4 4 4 6 5 6 8 7 9 8 10 9 11 10 13 13 13 12 13 13 15 16 17 20 19 16 19 16 16 18 12 9 6 7 5 4 16
5 5 6 5 5 4 5 4 3 4 4 4 6 5 7 9 8 8 9 9 12 12 12 12 13 12 14 16 15 16 15 13 15 14 15 15 14 15 11 10 9 4 4
6 5 5 6 6 4 4 4 3 3 4 4 5 7 6 6 7 9 9 8 9 11 11 11 11 13 15 17 17 15 15 16 14 15 15 15 13 10 13 8 11 7 7
7 6 6 5 6 6 5 4 5 3 4 4 5 5 7 5 6 8 10 9 10 10 9 10 10 12 13 14 13 15 12 13 14 15 13 13 11 5 8 8 11 7 8
8 7 6 6 5 5 4 6 6 4 4 4 4 4 5 5 5 7 9 10 10 10 8 8 9 10 12 13 10 11 10 11 12 12 11 9 11 7 2 6 7 5 3
8 7 7 6 5 5 5 6 6 6 6 6 5 4 4 5 3 6 6 7 8 9 8 8 8 7 10 12 9 7 7 9 10 12 12 11 12 9 5 4 2 5 8
9 8 7 7 6 6 6 7 7 8 8 8 6 5 5 5 3 3 5 6 7 7 7 7 8 8 8 11 7 9 6 5 6 7 15 13 13 10 7 6 4 4 6
8 9 8 8 8 8 8 9 9 9 10 9 8 7 6 7 5 4 4 4 5 5 6 6 6 7 7 11 8 7 4 4 4 5 8 14 14 11 8 8 5 4 5
10 10 11 11 11 10 10 11 11 11 10 9 10 10 9 9 7 6 6 5 5 4 4 5 4 5 6 7 10 6 6 4 3 3 4 7 15 16 13 10 7 4 5
12 14 13 13 13 12 13 14 14 12 11 11 11 12 11 11 10 9 8 7 7 7 6 5 5 3 3 5 9 6 5 4 4 4 4 4 9 13 15 12 11 8 6
14 14 15 14 14 15 16 15 14 13 12 12 12 13 13 12 13 12 11 10 9 9 8 7 7 5 3 4 7 5 6 3 4 3 4 6 10 10 8 11 11 8 5
17 17 17 17 17 17 17 17 15 14 14 14 14 14 15 14 14 14 14 13 12 11 10 9 9 7 7 6 4 3 4 5 3 5 4 4 3 5 4 5 5 6 7
18 19 19 19 18 18 18 18 17 16 17 17 16 16 17 16 17 18 17 16 15 15 13 11 10 9 10 6 7 6 4 4 5 5 6 6 5 4 3 3 4 5 4
18 20 21 20 19 19 19 19 19 20 20 20 19 19 18 18 18 18 19 22 22 13 18 19 12 7 11 10 11 10 7 7 6 5 7 6 5 5 4 3 2 3 4
Wind_Direction
324 313 295 272 280 283 293 299 314 324 329 328 333 329 331 325 321 322 329 334 345 343 340 337 345 351 341 332 320 306 249 209 204 221 221 199 227 239 211 207 193 176 179
313 315 303 299 280 282 281 279 297 328 329 330 328 320 328 321 319 319 323 331 340 345 340 340 338 343 340 338 334 323 312 219 192 207 221 213 234 233 230 201 198 184 183
331 327 328 321 298 296 292 288 299 325 328 325 324 324 324 324 328 328 321 334 334 346 343 342 338 341 343 344 338 331 329 223 195 202 184 159 214 196 219 209 201 191 188
332 333 333 324 320 313 317 303 315 317 323 325 327 327 316 327 329 315 323 322 333 343 353 343 343 341 342 345 346 338 322 315 262 185 190 199 169 188 183 208 208 205 194
342 334 336 333 327 318 312 327 318 313 328 320 326 323 326 325 321 320 329 323 331 28 357 342 344 348 344 342 352 349 335 323 269 231 190 205 199 187 188 195 197 209 207
332 342 339 330 319 320 326 344 309 329 318 325 322 319 323 323 322 327 335 342 346 351 343 342 344 342 348 345 351 352 338 318 279 270 198 194 189 194 195 186 192 203 201
351 337 346 346 338 337 330 329 335 324 320 320 322 320 322 321 318 338 347 335 333 336 330 342 341 341 346 348 350 358 341 319 309 283 212 201 202 203 202 195 194 195 207
351 340 351 346 344 341 335 340 330 321 316 323 322 321 323 324 330 335 343 325 323 322 339 338 340 339 345 348 347 357 348 336 314 288 261 199 199 204 193 187 183 224 216
346 350 348 359 341 339 339 346 336 324 331 333 326 322 325 324 326 327 333 328 339 337 334 340 343 344 347 350 354 357 344 351 342 320 283 195 195 200 194 199 203 220 176
350 351 342 355 341 333 330 341 334 328 331 327 326 330 332 333 328 327 347 352 343 343 344 356 355 355 359 360 9 1 5 358 354 5 349 186 192 214 200 198 219 228 235
349 341 332 343 331 319 315 330 335 333 340 338 344 345 335 332 334 344 356 357 349 348 1 6 8 5 7 7 14 8 20 15 9 27 14 51 168 213 233 226 234 220 214
343 334 325 324 308 315 314 333 336 334 349 340 348 352 343 346 348 355 9 6 2 5 9 19 18 13 11 12 14 15 23 20 33 24 19 31 58 78 227 316 222 229 225
324 316 304 307 289 299 302 318 335 347 345 347 349 8 344 357 353 355 359 13 10 10 16 21 26 22 17 12 9 22 21 17 35 22 27 25 42 37 357 323 346 259 225
315 313 301 310 295 292 292 287 308 337 334 337 344 20 347 343 352 347 359 13 7 8 20 23 29 32 22 16 11 21 17 27 29 29 30 26 28 35 12 342 319 295 316
292 301 299 310 304 273 271 256 270 317 321 327 339 349 353 342 354 358 358 4 9 14 19 23 30 30 21 14 20 16 23 28 25 29 20 21 35 51 51 10 332 315 330
283 289 289 290 293 275 262 241 247 269 299 313 328 338 339 9 357 344 335 355 2 7 17 24 24 30 26 18 30 30 25 24 30 28 24 9 21 63 48 34 17 15 334
266 268 273 277 281 270 250 250 240 232 265 283 301 323 329 354 351 326 327 348 354 358 6 17 25 29 22 28 50 41 32 34 32 28 17 16 8 29 69 16 355 36 70
247 251 254 260 254 244 222 237 235 233 249 264 277 299 305 322 3 306 330 342 349 353 358 5 12 22 15 26 50 49 46 40 38 34 20 11 7 23 55 52 10 20 49
226 241 239 243 242 229 221 225 233 242 245 247 250 276 286 292 310 302 334 338 341 350 352 359 2 4 7 16 34 38 45 51 45 23 16 25 16 34 61 55 54 48 46
216 215 227 227 234 228 225 227 235 241 249 256 247 247 251 256 267 276 291 312 321 331 336 344 354 353 0 356 19 27 12 56 67 66 31 22 35 33 42 44 51 63 57
215 215 217 224 230 227 226 235 236 240 249 253 251 249 256 250 251 256 266 280 287 295 301 307 320 337 344 352 2 16 21 13 24 58 59 38 46 43 57 53 59 55 46
216 213 221 221 226 226 226 234 239 238 236 238 243 244 250 250 246 245 250 250 260 265 267 271 276 263 301 349 352 4 13 29 359 17 35 27 54 53 44 62 69 58 64
225 224 224 226 224 226 226 233 240 238 233 233 240 243 249 251 246 246 249 249 248 255 263 259 261 255 265 260 337 3 27 29 25 15 22 38 35 24 26 44 58 50 62
227 225 222 227 227 225 228 234 235 232 233 237 239 238 242 247 247 247 245 248 247 247 251 250 251 254 254 246 235 257 298 331 333 324 327 332 2 21 28 22 38 56 60
228 227 227 227 231 228 228 229 230 229 231 235 239 239 241 242 244 244 241 242 245 244 246 245 247 246 247 241 222 256 274 262 292 276 285 292 300 303 316 359 20 28 46
228 227 228 229 230 230 230 227 226 225 229 232 236 238 239 242 245 247 247 238 241 245 233 244 243 253 240 254 260 266 250 244 226 256 254 258 271 278 288 304 346 34 46